When you browse on this site, cookies collect data to enhance your experience and personalize the content and advertising you see.
Visit our Privacy Policy to learn more. By continuing to use the site, you agree to this use of cookies and data.
  • Em Portugal
  • Lista de países
  • Para 7 dias
  • Temperatura da água
  • Mapa do tempo
  • Widgets de tempo
  • user-avatar
    Iniciar Sessão

    Previsão horária em Stirling

    Hoje, 22 Outubro, Terça-feira

    Tempo Temperatura Precipitação Vento Pressão Humidade
    00:00 +6°C° 0 mm 4 m/s 763 mmHg 87%
    01:00 +6°C° 0 mm 4 m/s 762 mmHg 87%
    02:00 +6°C° 0 mm 4 m/s 761 mmHg 88%
    03:00 +6°C° 0 mm 4 m/s 761 mmHg 89%
    04:00 +7°C° 0 mm 4 m/s 761 mmHg 89%
    05:00 +7°C° 0 mm 4 m/s 761 mmHg 90%
    06:00 +7°C° 0 mm 5 m/s 761 mmHg 90%
    07:00 +7°C° 0 mm 5 m/s 761 mmHg 89%
    08:00 +8°C° 0 mm 5 m/s 761 mmHg 87%
    09:00 +8°C° 0 mm 5 m/s 761 mmHg 86%
    10:00 +9°C° 0 mm 5 m/s 761 mmHg 84%
    11:00 +9°C° 0 mm 5 m/s 761 mmHg 83%
    12:00 +10°C° 0 mm 6 m/s 761 mmHg 81%
    13:00 +10°C° 0 mm 5 m/s 760 mmHg 82%
    14:00 +9°C° 0 mm 5 m/s 760 mmHg 83%
    15:00 +9°C° 0 mm 5 m/s 760 mmHg 83%
    16:00 +9°C° 0 mm 5 m/s 760 mmHg 84%
    17:00 +9°C° 0 mm 5 m/s 760 mmHg 85%
    18:00 +9°C° 0 mm 5 m/s 760 mmHg 86%
    19:00 +9°C° 0 mm 5 m/s 759 mmHg 85%
    20:00 +9°C° 0 mm 5 m/s 759 mmHg 83%
    21:00 +9°C° 0 mm 5 m/s 759 mmHg 82%
    22:00 +8°C° 0 mm 5 m/s 758 mmHg 83%
    23:00 +8°C° 0 mm 4 m/s 758 mmHg 85%

    Amanhã, 23 Outubro, Quarta-feira

    Tempo Temperatura Precipitação Vento Pressão Humidade
    00:00 +8°C° 0 mm 4 m/s 758 mmHg 86%
    01:00 +8°C° 0 mm 4 m/s 757 mmHg 86%
    02:00 +8°C° 0 mm 4 m/s 757 mmHg 86%
    03:00 +8°C° 0 mm 5 m/s 756 mmHg 86%
    04:00 +8°C° 0 mm 4 m/s 756 mmHg 86%
    05:00 +8°C° 0 mm 4 m/s 756 mmHg 86%
    06:00 +8°C° 0 mm 4 m/s 756 mmHg 85%
    07:00 +8°C° 0 mm 4 m/s 756 mmHg 85%
    08:00 +10°C° 0 mm 4 m/s 755 mmHg 84%
    09:00 +9°C° 0 mm 5 m/s 755 mmHg 84%
    10:00 +9°C° 0 mm 5 m/s 755 mmHg 81%
    11:00 +10°C° 0 mm 6 m/s 754 mmHg 78%
    12:00 +11°C° 0 mm 6 m/s 754 mmHg 75%
    13:00 +10°C° 0 mm 6 m/s 753 mmHg 76%
    14:00 +10°C° 0 mm 6 m/s 752 mmHg 77%
    15:00 +10°C° 0 mm 6 m/s 752 mmHg 77%
    16:00 +10°C° 0.1 mm 6 m/s 751 mmHg 79%
    17:00 +10°C° 0.1 mm 6 m/s 750 mmHg 81%
    18:00 +9°C° 0.1 mm 6 m/s 749 mmHg 83%
    19:00 +9°C° 0.6 mm 6 m/s 749 mmHg 85%
    20:00 +9°C° 0.6 mm 6 m/s 749 mmHg 87%
    21:00 +10°C° 0.6 mm 6 m/s 748 mmHg 89%
    22:00 +10°C° 0.5 mm 6 m/s 748 mmHg 90%
    23:00 +10°C° 0.5 mm 6 m/s 748 mmHg 90%

    Depois de amanhã, 24 Outubro, Quinta-feira

    Tempo Temperatura Precipitação Vento Pressão Humidade
    00:00 +10°C° 0.5 mm 5 m/s 748 mmHg 91%
    01:00 +11°C° 0.2 mm 4 m/s 748 mmHg 92%
    02:00 +10°C° 0.2 mm 3 m/s 747 mmHg 93%
    03:00 +10°C° 0.2 mm 2 m/s 747 mmHg 94%
    04:00 +9°C° 0 mm 2 m/s 747 mmHg 95%
    05:00 +9°C° 0 mm 2 m/s 747 mmHg 95%
    06:00 +8°C° 0 mm 2 m/s 747 mmHg 96%
    07:00 +9°C° 0 mm 2 m/s 747 mmHg 94%
    08:00 +9°C° 0 mm 2 m/s 747 mmHg 92%
    09:00 +10°C° 0 mm 3 m/s 747 mmHg 91%
    10:00 +10°C° 0.1 mm 3 m/s 747 mmHg 88%
    11:00 +11°C° 0.1 mm 4 m/s 747 mmHg 85%
    12:00 +10°C° 0.1 mm 5 m/s 746 mmHg 82%
    13:00 +10°C° 0.1 mm 5 m/s 746 mmHg 82%
    14:00 +9°C° 0.1 mm 5 m/s 746 mmHg 82%
    15:00 +10°C° 0.1 mm 4 m/s 745 mmHg 81%
    16:00 +8°C° 0.2 mm 5 m/s 745 mmHg 81%
    17:00 +7°C° 0.2 mm 5 m/s 745 mmHg 81%
    18:00 +6°C° 0.2 mm 5 m/s 745 mmHg 81%
    19:00 +5°C° 0 mm 6 m/s 744 mmHg 82%
    20:00 +4°C° 0 mm 7 m/s 744 mmHg 82%
    21:00 +4°C° 0 mm 8 m/s 744 mmHg 83%
    22:00 +4°C° 0.3 mm 8 m/s 744 mmHg 83%
    23:00 +5°C° 0.3 mm 8 m/s 744 mmHg 83%

    25 Outubro, Sexta-feira

    Tempo Temperatura Precipitação Vento Pressão Humidade
    00:00 +5°C° 0.3 mm 8 m/s 745 mmHg 84%
    01:00 +4°C° 0.2 mm 8 m/s 745 mmHg 83%
    02:00 +4°C° 0.2 mm 7 m/s 746 mmHg 81%
    03:00 +3°C° 0.2 mm 7 m/s 747 mmHg 80%
    04:00 +2°C° 0 mm 6 m/s 748 mmHg 79%
    05:00 +2°C° 0 mm 6 m/s 749 mmHg 79%
    06:00 +1°C° 0 mm 6 m/s 749 mmHg 79%
    07:00 +2°C° 0 mm 6 m/s 750 mmHg 76%
    08:00 +2°C° 0 mm 6 m/s 751 mmHg 73%
    09:00 +3°C° 0 mm 6 m/s 751 mmHg 71%
    10:00 +3°C° 0.1 mm 6 m/s 751 mmHg 73%
    11:00 +3°C° 0.1 mm 6 m/s 751 mmHg 75%
    12:00 +3°C° 0.1 mm 7 m/s 751 mmHg 78%
    13:00 +3°C° 0.1 mm 7 m/s 751 mmHg 76%
    14:00 +3°C° 0.1 mm 6 m/s 750 mmHg 74%
    15:00 +4°C° 0.1 mm 6 m/s 750 mmHg 73%
    16:00 +3°C° 0.2 mm 5 m/s 750 mmHg 78%
    17:00 +3°C° 0.2 mm 4 m/s 749 mmHg 82%
    18:00 +3°C° 0.2 mm 3 m/s 749 mmHg 87%
    19:00 +2°C° 0 mm 3 m/s 749 mmHg 86%
    20:00 +2°C° 0 mm 3 m/s 749 mmHg 85%
    21:00 +1°C° 0 mm 3 m/s 749 mmHg 83%
    22:00 +1°C° 0 mm 3 m/s 750 mmHg 85%
    23:00 +2°C° 0 mm 3 m/s 750 mmHg 86%

    26 Outubro, Sábado

    Tempo Temperatura Precipitação Vento Pressão Humidade
    00:00 +1°C° 0 mm 4 m/s 751 mmHg 88%
    01:00 +1°C° 0 mm 4 m/s 751 mmHg 89%
    02:00 +1°C° 0 mm 4 m/s 752 mmHg 90%
    03:00 +1°C° 0 mm 4 m/s 753 mmHg 90%
    04:00 +1°C° 0.1 mm 4 m/s 753 mmHg 89%
    05:00 +1°C° 0.1 mm 4 m/s 753 mmHg 88%
    06:00 +1°C° 0.1 mm 4 m/s 754 mmHg 86%
    07:00 +1°C° 0.1 mm 4 m/s 754 mmHg 85%
    08:00 +3°C° 0.1 mm 4 m/s 755 mmHg 84%
    09:00 +3°C° 0.1 mm 4 m/s 755 mmHg 82%
    10:00 +3°C° 0.2 mm 5 m/s 756 mmHg 79%
    11:00 +5°C° 0.2 mm 5 m/s 756 mmHg 76%
    12:00 +5°C° 0.2 mm 5 m/s 756 mmHg 73%
    13:00 +5°C° 0 mm 5 m/s 756 mmHg 71%
    14:00 +4°C° 0 mm 6 m/s 757 mmHg 69%
    15:00 +4°C° 0 mm 6 m/s 757 mmHg 68%
    16:00 +3°C° 0 mm 6 m/s 757 mmHg 71%
    17:00 +3°C° 0 mm 5 m/s 757 mmHg 73%
    18:00 +2°C° 0 mm 5 m/s 757 mmHg 76%
    19:00 +2°C° 0 mm 5 m/s 757 mmHg 79%
    20:00 +2°C° 0 mm 5 m/s 758 mmHg 82%
    21:00 +2°C° 0 mm 5 m/s 758 mmHg 85%
    22:00 +3°C° 0 mm 4 m/s 759 mmHg 87%
    23:00 +3°C° 0 mm 3 m/s 759 mmHg 90%

    27 Outubro, Domingo

    Tempo Temperatura Precipitação Vento Pressão Humidade
    00:00 +4°C° 0 mm 2 m/s 760 mmHg 93%
    01:00 +4°C° 0 mm 2 m/s 760 mmHg 93%
    02:00 +3°C° 0 mm 2 m/s 761 mmHg 92%
    03:00 +3°C° 0 mm 2 m/s 762 mmHg 92%
    04:00 +3°C° 0 mm 2 m/s 762 mmHg 91%
    05:00 +3°C° 0 mm 2 m/s 763 mmHg 90%
    06:00 +2°C° 0 mm 2 m/s 764 mmHg 90%
    07:00 +3°C° 0 mm 2 m/s 764 mmHg 87%
    08:00 +4°C° 0 mm 2 m/s 765 mmHg 85%
    09:00 +5°C° 0 mm 1 m/s 766 mmHg 82%
    10:00 +5°C° 0 mm 2 m/s 766 mmHg 76%
    11:00 +7°C° 0 mm 2 m/s 766 mmHg 69%
    12:00 +8°C° 0 mm 2 m/s 767 mmHg 63%
    13:00 +8°C° 0 mm 2 m/s 767 mmHg 64%
    14:00 +9°C° 0 mm 1 m/s 767 mmHg 65%
    15:00 +8°C° 0 mm 1 m/s 767 mmHg 66%
    16:00 +7°C° 0 mm 1 m/s 767 mmHg 70%
    17:00 +6°C° 0 mm 1 m/s 767 mmHg 74%
    18:00 +4°C° 0 mm 1 m/s 767 mmHg 79%
    19:00 +4°C° 0 mm 1 m/s 768 mmHg 80%
    20:00 +4°C° 0 mm 1 m/s 768 mmHg 82%
    21:00 +3°C° 0 mm 1 m/s 768 mmHg 83%
    22:00 +3°C° 0 mm 1 m/s 768 mmHg 84%
    23:00 +3°C° 0 mm 1 m/s 768 mmHg 84%

    28 Outubro, Segunda-feira

    Tempo Temperatura Precipitação Vento Pressão Humidade
    00:00 +2°C° 0 mm 1 m/s 768 mmHg 85%
    01:00 +2°C° 0 mm 1 m/s 768 mmHg 85%
    02:00 +2°C° 0 mm 1 m/s 768 mmHg 85%
    03:00 +2°C° 0 mm 1 m/s 768 mmHg 85%
    04:00 +2°C° 0 mm 1 m/s 768 mmHg 85%
    05:00 +2°C° 0 mm 1 m/s 768 mmHg 85%
    06:00 +2°C° 0 mm 1 m/s 768 mmHg 85%
    07:00 +3°C° 0 mm 1 m/s 768 mmHg 82%
    08:00 +3°C° 0 mm 1 m/s 769 mmHg 79%
    09:00 +4°C° 0 mm 1 m/s 769 mmHg 76%
    10:00 +5°C° 0 mm 1 m/s 769 mmHg 70%
    11:00 +6°C° 0 mm 1 m/s 769 mmHg 64%
    12:00 +8°C° 0 mm 1 m/s 769 mmHg 59%
    13:00 +8°C° 0 mm 1 m/s 768 mmHg 60%
    14:00 +8°C° 0 mm 1 m/s 768 mmHg 62%
    15:00 +8°C° 0 mm 1 m/s 768 mmHg 63%
    16:00 +6°C° 0 mm 1 m/s 768 mmHg 69%
    17:00 +5°C° 0 mm 1 m/s 768 mmHg 74%
    18:00 +2°C° 0 mm 0 m/s 768 mmHg 80%
    19:00 +3°C° 0 mm 1 m/s 768 mmHg 80%
    20:00 +3°C° 0 mm 1 m/s 768 mmHg 80%
    21:00 +3°C° 0 mm 1 m/s 768 mmHg 79%
    22:00 +3°C° 0 mm 1 m/s 768 mmHg 80%
    23:00 +2°C° 0 mm 1 m/s 767 mmHg 81%
    Mostrar mais